Location: Bratislava
(48.1500°N, 17.1170°E)
Time: 20:07:52
(UTC+02:00)

Envisat - Pass Details

Date: 15 May 2026
Orbit: 761 x 763 km, 98.4° (Epoch: 10 June)

Event Time Altitude Azimuth Distance (km) Brightness Sun altitude
Rises 02:33:00 0° 24° (NNE) 3,235 7.9 -19.0°
Reaches altitude 10° 02:35:43 10° 38° (NE) 2,304 6.7 -18.8°
Maximum altitude 02:39:52 25° 93° (E) 1,511 4.8 -18.5°
Drops below altitude 10° 02:43:59 10° 148° (SSE) 2,289 5.2 -18.2°
Enters shadow 02:44:07 - 149° (SSE) 2,331 5.2 -18.2°
